Location: Piolenc
(44.1794°N, 4.7641°E)
Time: 04:44:15
(UTC+00:00)

USA 215 - Pass Details

Date: 27 January 2021
Orbit: 1103 x 1105 km, 123.0° (Epoch: 14 February)

Event Time Altitude Azimuth Distance (km) Brightness Sun altitude
Rises 04:33:51 0° 54° (NE) 3,926 7.0 -26.9°
Reaches altitude 10° 04:36:33 10° 46° (NE) 2,967 6.1 -26.4°
Maximum altitude 04:42:19 35° 344° (NNW) 1,716 4.1 -25.4°
Enters shadow 04:43:19 33° 326° (NW) 1,766 4.0 -25.2°
